When you browse on this site, cookies collect data to enhance your experience and personalize the content and advertising you see.
Visit our Privacy Policy to learn more. By continuing to use the site, you agree to this use of cookies and data.
  • In Latvia
  • List of Countries
  • For 7 days
  • Water Temperature
  • Satellite Maps
  • Weather Map
  • Weather Widgets
  • user-avatar
    Login

    Hourly Weather Polanowice

    Today, 19 February, Tuesday

    Time Temperature Precipitation Wind Pressure Humidity
    00:00 +3°C° 0 mm 3 mps 755 mmHg 73%
    01:00 +3°C° 0 mm 3 mps 755 mmHg 75%
    02:00 +3°C° 0 mm 3 mps 754 mmHg 76%
    03:00 +2°C° 0 mm 3 mps 754 mmHg 77%
    04:00 +2°C° 0 mm 3 mps 754 mmHg 79%
    05:00 +2°C° 0 mm 3 mps 753 mmHg 78%
    06:00 0°C° 0 mm 4 mps 753 mmHg 76%
    07:00 0°C° 0 mm 4 mps 753 mmHg 75%
    08:00 +2°C° 0 mm 5 mps 752 mmHg 71%
    09:00 +3°C° 0 mm 5 mps 752 mmHg 67%
    10:00 +5°C° 0 mm 6 mps 752 mmHg 63%
    11:00 +7°C° 0 mm 6 mps 752 mmHg 61%
    12:00 +8°C° 0 mm 6 mps 752 mmHg 58%
    13:00 +9°C° 0 mm 7 mps 752 mmHg 56%
    14:00 +9°C° 0 mm 6 mps 752 mmHg 60%
    15:00 +9°C° 0 mm 6 mps 751 mmHg 64%
    16:00 +8°C° 0 mm 5 mps 751 mmHg 68%
    17:00 +8°C° 0.1 mm 5 mps 752 mmHg 73%
    18:00 +7°C° 0.1 mm 5 mps 752 mmHg 78%
    19:00 +6°C° 0.1 mm 5 mps 752 mmHg 83%
    20:00 +6°C° 0 mm 5 mps 752 mmHg 82%
    21:00 +5°C° 0 mm 5 mps 752 mmHg 81%
    22:00 +5°C° 0 mm 5 mps 752 mmHg 79%
    23:00 +3°C° 0 mm 5 mps 752 mmHg 81%

    Tomorrow, 20 February, Wednesday

    Time Temperature Precipitation Wind Pressure Humidity
    00:00 +3°C° 0 mm 6 mps 752 mmHg 83%
    01:00 +3°C° 0 mm 6 mps 753 mmHg 85%
    02:00 +3°C° 0 mm 6 mps 753 mmHg 87%
    03:00 +2°C° 0 mm 6 mps 753 mmHg 88%
    04:00 +2°C° 0 mm 6 mps 753 mmHg 90%
    05:00 +2°C° 0 mm 6 mps 753 mmHg 87%
    06:00 +2°C° 0 mm 6 mps 753 mmHg 84%
    07:00 +3°C° 0 mm 6 mps 754 mmHg 81%
    08:00 +3°C° 0.1 mm 7 mps 754 mmHg 78%
    09:00 +4°C° 0.1 mm 7 mps 755 mmHg 74%
    10:00 +4°C° 0.1 mm 8 mps 755 mmHg 70%
    11:00 +4°C° 0.1 mm 8 mps 755 mmHg 69%
    12:00 +5°C° 0.1 mm 8 mps 756 mmHg 68%
    13:00 +5°C° 0.1 mm 8 mps 756 mmHg 66%
    14:00 +5°C° 0.1 mm 7 mps 756 mmHg 69%
    15:00 +4°C° 0.1 mm 6 mps 756 mmHg 72%
    16:00 +4°C° 0.1 mm 6 mps 756 mmHg 74%
    17:00 +5°C° 0 mm 5 mps 757 mmHg 76%
    18:00 +5°C° 0 mm 5 mps 757 mmHg 78%
    19:00 +5°C° 0 mm 4 mps 757 mmHg 80%
    20:00 +5°C° 0 mm 4 mps 757 mmHg 82%
    21:00 +4°C° 0 mm 4 mps 757 mmHg 85%
    22:00 +4°C° 0 mm 4 mps 757 mmHg 88%
    23:00 +4°C° 0 mm 4 mps 757 mmHg 88%

    Day after tomorrow, 21 February, Thursday

    Time Temperature Precipitation Wind Pressure Humidity
    00:00 +4°C° 0 mm 4 mps 757 mmHg 89%
    01:00 +4°C° 0 mm 4 mps 757 mmHg 89%
    02:00 +4°C° 0.2 mm 4 mps 757 mmHg 89%
    03:00 +3°C° 0.2 mm 5 mps 757 mmHg 88%
    04:00 +3°C° 0.2 mm 5 mps 757 mmHg 88%
    05:00 +3°C° 0.3 mm 5 mps 756 mmHg 88%
    06:00 +3°C° 0.3 mm 5 mps 756 mmHg 89%
    07:00 +3°C° 0.3 mm 6 mps 756 mmHg 90%
    08:00 +4°C° 0.4 mm 6 mps 756 mmHg 89%
    09:00 +4°C° 0.4 mm 6 mps 756 mmHg 89%
    10:00 +4°C° 0.4 mm 7 mps 756 mmHg 88%
    11:00 +5°C° 1 mm 6 mps 756 mmHg 88%
    12:00 +5°C° 1 mm 6 mps 756 mmHg 88%
    13:00 +5°C° 1 mm 6 mps 756 mmHg 88%
    14:00 +5°C° 0.1 mm 6 mps 756 mmHg 88%
    15:00 +7°C° 0.1 mm 6 mps 756 mmHg 89%
    16:00 +7°C° 0.1 mm 6 mps 756 mmHg 89%
    17:00 +7°C° 0 mm 6 mps 757 mmHg 89%
    18:00 +5°C° 0 mm 6 mps 757 mmHg 88%
    19:00 +5°C° 0 mm 6 mps 758 mmHg 87%
    20:00 +5°C° 0.1 mm 6 mps 759 mmHg 87%
    21:00 +4°C° 0.1 mm 6 mps 759 mmHg 87%
    22:00 +4°C° 0.1 mm 6 mps 760 mmHg 86%
    23:00 +3°C° 0 mm 5 mps 761 mmHg 84%

    22 February, Friday

    Time Temperature Precipitation Wind Pressure Humidity
    00:00 +1°C° 0 mm 5 mps 762 mmHg 81%
    01:00 0°C° 0 mm 5 mps 763 mmHg 79%
    02:00 0°C° 0 mm 4 mps 763 mmHg 77%
    03:00 -1°C° 0 mm 4 mps 764 mmHg 76%
    04:00 -1°C° 0 mm 3 mps 765 mmHg 74%
    05:00 -1°C° 0 mm 3 mps 766 mmHg 72%
    06:00 -1°C° 0 mm 3 mps 767 mmHg 69%
    07:00 -2°C° 0 mm 3 mps 768 mmHg 67%
    08:00 -2°C° 0 mm 4 mps 768 mmHg 62%
    09:00 -2°C° 0 mm 4 mps 769 mmHg 56%
    10:00 -1°C° 0 mm 4 mps 770 mmHg 51%
    11:00 -1°C° 0 mm 4 mps 771 mmHg 48%
    12:00 0°C° 0 mm 4 mps 771 mmHg 45%
    13:00 +1°C° 0 mm 3 mps 772 mmHg 42%
    14:00 +1°C° 0 mm 3 mps 772 mmHg 42%
    15:00 +1°C° 0 mm 3 mps 772 mmHg 42%
    16:00 +1°C° 0 mm 3 mps 773 mmHg 42%
    17:00 +1°C° 0 mm 2 mps 773 mmHg 46%
    18:00 -1°C° 0 mm 2 mps 773 mmHg 50%
    19:00 -2°C° 0 mm 2 mps 774 mmHg 54%
    20:00 -2°C° 0 mm 2 mps 774 mmHg 54%
    21:00 -2°C° 0 mm 2 mps 775 mmHg 55%
    22:00 0°C° 0 mm 1 mps 775 mmHg 56%
    23:00 -2°C° 0 mm 2 mps 775 mmHg 56%

    23 February, Saturday

    Time Temperature Precipitation Wind Pressure Humidity
    00:00 -2°C° 0 mm 2 mps 775 mmHg 56%
    01:00 -2°C° 0 mm 2 mps 774 mmHg 56%
    02:00 -2°C° 0 mm 2 mps 774 mmHg 56%
    03:00 -2°C° 0 mm 2 mps 774 mmHg 55%
    04:00 -2°C° 0 mm 2 mps 774 mmHg 55%
    05:00 -2°C° 0 mm 2 mps 773 mmHg 55%
    06:00 -2°C° 0 mm 2 mps 773 mmHg 55%
    07:00 -2°C° 0 mm 2 mps 773 mmHg 55%
    08:00 -1°C° 0 mm 3 mps 772 mmHg 51%
    09:00 0°C° 0 mm 3 mps 772 mmHg 47%
    10:00 0°C° 0 mm 4 mps 772 mmHg 43%
    11:00 +1°C° 0 mm 4 mps 771 mmHg 43%
    12:00 +3°C° 0 mm 4 mps 771 mmHg 44%
    13:00 +3°C° 0 mm 5 mps 770 mmHg 45%
    14:00 +4°C° 0 mm 4 mps 769 mmHg 51%
    15:00 +4°C° 0 mm 4 mps 769 mmHg 58%
    16:00 +4°C° 0 mm 3 mps 769 mmHg 64%
    17:00 +4°C° 0 mm 3 mps 768 mmHg 72%
    18:00 +3°C° 0 mm 3 mps 768 mmHg 79%
    19:00 +3°C° 0 mm 3 mps 768 mmHg 86%
    20:00 +3°C° 0 mm 3 mps 768 mmHg 89%
    21:00 +4°C° 0 mm 2 mps 768 mmHg 92%
    22:00 +3°C° 0 mm 2 mps 768 mmHg 95%
    23:00 +3°C° 0 mm 2 mps 768 mmHg 95%

    24 February, Sunday

    Time Temperature Precipitation Wind Pressure Humidity
    00:00 +3°C° 0 mm 2 mps 768 mmHg 96%
    01:00 +3°C° 0 mm 2 mps 768 mmHg 96%
    02:00 +3°C° 0 mm 2 mps 768 mmHg 96%
    03:00 +2°C° 0 mm 2 mps 768 mmHg 96%
    04:00 +2°C° 0 mm 2 mps 767 mmHg 96%
    05:00 +1°C° 0 mm 3 mps 767 mmHg 95%
    06:00 +1°C° 0 mm 3 mps 767 mmHg 95%
    07:00 0°C° 0 mm 3 mps 767 mmHg 94%
    08:00 +2°C° 0 mm 3 mps 767 mmHg 89%
    09:00 +4°C° 0 mm 4 mps 767 mmHg 84%
    10:00 +5°C° 0 mm 4 mps 767 mmHg 79%
    11:00 +6°C° 0 mm 4 mps 766 mmHg 74%
    12:00 +8°C° 0 mm 5 mps 766 mmHg 69%
    13:00 +9°C° 0 mm 5 mps 766 mmHg 63%
    14:00 +9°C° 0 mm 5 mps 765 mmHg 63%
    15:00 +10°C° 0 mm 4 mps 765 mmHg 63%
    16:00 +11°C° 0 mm 4 mps 764 mmHg 62%
    17:00 +8°C° 0 mm 4 mps 764 mmHg 67%
    18:00 +7°C° 0 mm 4 mps 763 mmHg 72%
    19:00 +6°C° 0 mm 4 mps 763 mmHg 77%
    20:00 +6°C° 0 mm 4 mps 763 mmHg 80%
    21:00 +5°C° 0 mm 4 mps 762 mmHg 82%
    22:00 +5°C° 0 mm 4 mps 762 mmHg 85%
    23:00 +5°C° 0 mm 4 mps 761 mmHg 87%
    Show more